www.pogodaiklimat.ru

Погода и климат >> Архив погоды >> Бенин >> Kandi


ПОГОДА в Kandi

  • Прогноз погоды в Kandi
  • Монитор погоды в Kandi
  • Климат города

АРХИВ ПОГОДЫ в Kandi

Время (UTC), дата Ветер
(напр.,м/с)
 
Видим.   Явления Облачность Т
(С)
Тd
(С)
f
(%)
Тe
(С)
Тes
(С)
Комфортность P
(гПа)
Po
(гПа)
Тmin
(С)
Tmax
(С)
R
(мм)
R24
(мм)
S
(см)
06 19.05 ЮВ 4 10 км слабый дождь 9/6 500 м
[Cb cap Ac cuf]
+25.9 +21.9 79 +33 +33 очень
душно
1013.9 980.5 +25.6 0.0
12 19.05 ЮЗ 1 10 км {гроза, дождь} 9/0
[Ac As]
+32.4 +19.1 45 +38 +47 очень
душно
1010.9 978.4 0.0
15 19.05 С 2 10 км 9/1 900 м
[Cu med, cong Ac As]
+31.7 +20.7 52 +39 +42 очень
душно
1010.2 977.7
18 19.05 СЗ 1 10 км 9/0
[Cs]
+29.6 +23.8 71 +41 +41 опасность
перегрева
1009.4 976.8 +32.5 0.0
21 19.05 С 1 10 км 6/0
[Ci sp]
+28.4 +24.7 80 +40 +40 очень
душно
1012.8 980.0
00 20.05 В 1 10 км зарница 9/3 600 м
[Cb cap Ci sp]
+27.2 +25.0 88 +39 +39 очень
душно
1012.6 980.0
03 20.05 В 2 10 км 9/1 600 м
[Cb cap Ac cuf Ci sp]
+26.8 +19.5 64 +32 +32 очень
душно
1012.1 979.5
06 20.05 З 1 10 км 6/0
[Ac trans Ci sp]
+25.8 +19.9 70 +32 +32 очень
душно
1010.5 977.8 +25.5 0.0
09 20.05 СВ 1 10 км 6/0
[Ac trans Ci sp]
+31.6 +20.0 50 +38 +50 очень
душно
1012.3 979.8
12 20.05 В 1 10 км 6/0
[Ci sp]
+36.5 +17.8 33 +40 +62 опасность
солнечного
удара
1010.7 978.4
15 20.05 В 2 10 км 9/1 600 м
[Cb cap Ci sp]
+37.3 +19.7 36 +43 +50 опасность
перегрева
1008.5 976.3
18 20.05 штиль 0 10 км 9/1 600 м
[Cb cap Ac As Ci sp]
+34.7 +20.7 44 +41 +41 опасность
перегрева
1009.5 977.1 +37.7
21 20.05 Ю 1 10 км 9/0
[Ac As Ci sp]
+32.5 +22.8 57 +43 +43 опасность
перегрева
1010.3 978.0
00 21.05 ЮЗ 3 10 км 9/0
[Ac As Ci sp]
+30.5 +22.6 63 +40 +40 очень
душно
1010.1 978.0
03 21.05 СЗ 2 10 км 8/0
[Ac As Ci sp]
+29.0 +22.2 67 +38 +38 очень
душно
1009.4 977.3
06 21.05 ЮЗ 1 10 км 8/0
[Ac trans Ci sp]
+28.0 +23.0 74 +37 +38 очень
душно
1010.3 978.0 +27.7
09 21.05 З 3 10 км 6/0
[Ci sp]
+31.3 +22.7 60 +41 +50 опасность
перегрева
1011.1 978.8
12 21.05 штиль 0 10 км 6/1 900 м
[Cu hum Ci sp]
+35.7 +22.5 47 +45 +68 опасность
перегрева
1009.1 977.0
15 21.05 СЗ 2 10 км 8/3 900 м
[Cu med, cong Ci sp]
+37.6 +22.5 42 +46 +46 опасность
перегрева
1006.4 974.4
18 21.05 СЗ 2 10 км в посл. час гроза 8/3 900 м
[Cb cap Ci sp]
+34.3 +22.8 51 +44 +44 опасность
перегрева
1007.2 974.9 +37.8
21 21.05 З 1 10 км 9/1 600 м
[Cb cap Ci sp]
+32.6 +24.0 61 +45 +45 опасность
перегрева
1008.1 975.9
00 22.05 ЮЗ 2 10 км 8/1 600 м
[Cb cap Ci sp]
+30.7 +23.3 65 +41 +41 опасность
перегрева
1008.1 976.0
03 22.05 ЮЗ 4 10 км зарница 9/1 600 м
[Cb cap Ac As Ci sp]
+28.0 +21.2 67 +35 +35 очень
душно
1008.8 976.7
06 22.05 ЮЗ 1 10 км 9/0
[Ac As Cs]
+25.3 +19.7 71 +31 +31 очень
душно
1009.2 976.8 +24.6
09 22.05 СЗ 2 10 км 9/0
[Cs]
+29.5 +18.7 52 +35 +45 очень
душно
1009.9 977.5
12 22.05 СЗ 1 10 км 9/0
[Cs]
+34.5 +19.2 41 +40 +60 опасность
солнечного
удара
1008.2 976.0
15 22.05 СЗ 2 10 км 8/0
[Ci sp]
+38.0 +19.8 35 +43 +52 опасность
перегрева
1005.8 973.8
18 22.05 С 3 10 км 8/0
[Ac trans Ci sp]
+35.8 +20.2 40 +42 +42 опасность
перегрева
1006.3 974.0 +38.2
21 22.05 Ю 2 10 км 8/0
[Ci sp]
+32.5 +21.7 53 +41 +41 опасность
перегрева
1007.8 975.5
00 23.05 ЮЗ 2 10 км 8/0
[Ci sp]
+30.8 +22.5 61 +40 +40 очень
душно
1007.7 975.6
03 23.05 штиль 0 10 км 8/0
[Ci sp]
+29.6 +22.4 65 +39 +39 очень
душно
1006.3 974.4
06 23.05 ЮЗ 3 10 км 8/0
[Ci sp]
+28.9 +22.7 69 +38 +38 очень
душно
1007.8 975.7 +28.6
09 23.05 ЮЗ 3 10 км 6/0
[Ci sp]
+32.1 +23.5 60 +43 +52 опасность
перегрева
1009.5 977.3
12 23.05 ЮЗ 2 10 км 8/1 900 м
[Cu hum Ci sp]
+36.2 +21.6 43 +44 +60 опасность
перегрева
1008.4 976.3
15 23.05 ЮЗ 2 10 км 8/3 600 м
[Cu Sc Ci sp]
+38.4 +21.8 39 +46 +53 опасность
перегрева
1005.6 973.7
18 23.05 Ю 1 10 км 8/3 600 м
[Cu Sc Ci sp]
+36.6 +21.4 41 +44 +44 опасность
перегрева
1004.9 972.9 +39.0
21 23.05 ЮЗ 2 10 км зарница 8/1 600 м
[Cb cap Ac As Ci sp]
+33.7 +23.2 54 +44 +44 опасность
перегрева
1007.9 975.8
00 24.05 ЮЗ 1 10 км гроза без осадков {дождь} 9/3 600 м
[Cb cap Ac As]
+26.6 +22.1 76 +34 +34 очень
душно
1009.7 977.4 12
03 24.05 ЮЗ 2 10 км {гроза} 9/1 600 м
[Cb cap Ac As]
+25.5 +21.7 80 +33 +33 очень
душно
1009.0 976.8
06 24.05 ЮЗ 1 10 км 9/0
[As op]
+25.5 +21.4 78 +32 +32 очень
душно
1008.2 975.9 +25.0 12
09 24.05 З 1 10 км 9/0
[As op Ci sp]
+27.2 +21.8 72 +35 +39 очень
душно
1010.9 978.5
12 24.05 З 1 10 км 9/0
[As op Ci sp]
+31.0 +21.2 56 +39 +46 очень
душно
1010.8 978.2
15 24.05 СЗ 2 10 км 9/0
[Ac trans Cs]
+32.9 +21.1 50 +40 +48 очень
душно
1008.5 976.0
18 24.05 З 2 10 км 9/1 600 м
[Cu Sc Ac As Ci sp]
+31.8 +21.8 55 +40 +40 очень
душно
1007.6 975.0 +33.5
21 24.05 ЮЗ 2 10 км 8/1 600 м
[Cu Sc Ac As Ci sp]
+29.8 +22.9 67 +40 +40 очень
душно
1010.9 978.2
00 25.05 З 1 10 км 8/1 600 м
[Sc Ac As Ci sp]
+28.0 +23.0 74 +37 +37 очень
душно
1010.6 978.1
03 25.05 З 1 10 км 6/0
[Ac As Ci sp]
+26.4 +22.6 80 +35 +35 очень
душно
1009.8 977.2
06 25.05 СЗ 1 10 км 6/0
[Ac trans Ci sp]
+26.0 +22.7 82 +34 +35 очень
душно
1010.7 978.1 +26.0
09 25.05 ЮЗ 1 10 км 9/1 600 м
[Cu Sc Ac As Ci sp]
+30.1 +23.6 68 +41 +48 опасность
перегрева
1013.1 980.5
12 25.05 Ю 2 10 км 9/3 600 м
[Cb cap Ac As Ci sp]
+31.4 +20.8 53 +38 +47 очень
душно
1011.4 978.9
15 25.05 Ю 2 <50 м 9/0 600 м
[Ac As]
+29.2 +20.6 60 +36 +40 очень
душно
1009.5 976.9
18 25.05 ЮЗ 3 10 км 8/0
[Ac As Ci sp]
+28.1 +21.3 67 +36 +36 очень
душно
1009.7 976.9 +31.7
21 25.05 Ю 2 10 км 9/0
[Ac As Ci sp]
+26.7 +21.7 74 +34 +34 очень
душно
1012.3 979.6
00 26.05 ЮВ 4 8000 м слабый дождь 9/6 600 м
[Cb cap Ac As Ci sp]
+25.9 +22.6 82 +34 +34 очень
душно
1014.9 982.1 0.0

 

Местоположение метеостанции Kandi (Бенин): широта 11.13 долгота 2.93 высота над уровнем моря 292 м.

В архиве по умолчанию представлена погода в Kandi за последнюю неделю. Архивные данные за месяц целиком и за предыдущие месяцы, начиная с января 2011 года, Вы можете получить, выбрав интересующий диапазон дат из раскрывающегося списка и нажав кнопку "Ввод!".

Внимание! Время в таблицах - всемирное. Для получения местного времени необходимо прибавить поправку, которая в Kandi равна 1 ч.

Смотрите также архив погоды в соседних городах и на ближайших метеорологических станциях:

Погода в Gaya (Нигер) (101 км)
Погода в Natitingou (Бенин) (192 км)
Погода в Yelwa (Нигерия) (201 км)
Погода в Parakou (Бенин) (201 км)
Погода в Dosso (Нигер) (211 км)
Погода в Niamtougou (Того) (251 км)
Погода в Kara (Того) (261 км)
Погода в Niamey-Aero (Нигер) (274 км)
Погода в Mango (Того) (282 км)
Погода в Dapaon (Того) (283 км)

Пояснения к столбцам:

Ветер - указаны скорость ветра в м/с - средняя за 10 мин, порывы в срок и между сроками (в фигурных скобках) и направление, откуда дует ветер: С - северный, СВ - северо-восточный, В - восточный, ЮВ - юго-восточный, Ю - южный, ЮЗ - юго-западный, З - западный, СЗ - северо-западный.
Видимость - горизонтальная дальность видимости в метрах или километрах. При видимости от 1 до 10 км при отсутствии осадков обычно наблюдается дымка, при ухудшении видимости до 1 км и менее - туман. В сухую погоду видимость может ухудшаться дымом, пылью или мглою.
Явления - указаны атмосферные явления, наблюдавшиеся в срок или в последний час перед сроком; фигурными скобками обозначены явления, наблюдавшиеся между сроками (за 1-3 часа до срока); квадратными скобками обозначены град или гололедные отложения с указанием их диаметра в мм.
Облачность - указаны через наклонную черту общая и нижняя облачность в баллах и высота нижней границы облаков в метрах; квадратными скобками обозначены формы облаков: Ci - перистые, Cs - перисто-слоистые, Cc - перисто-кучевые, Ac - высококучевые, As - высокослоистые, Sc - слоисто-кучевые, Ns - слоисто-дождевые, Cu - кучевые, Cb - кучево-дождевые. Подробнее классификацию облаков см. в Атласе облаков (PDF).
T - Температура воздуха - температура, измеренная на высоте 2 м над землей.
Td - Температура точки росы - температура, при понижении до которой содержащийся в воздухе водяной пар достигнет насыщения.
f - Относительная влажность воздуха - влажноcть воздуха, измеренная на высоте 2 м над землей.
Te - Эффективная температура - температура, которую ощущает одетый по сезону человек в тени. Характеристика душности погоды. При расчете учитывается влияние влажности воздуха и скорости ветра на теплоощущения человека.
Tes - Эффективная температура на солнце - температура, которую ощущает человек, с поправкой на солнечный нагрев. Характеристика знойности погоды. Зависит от высоты солнца над горизонтом, облачности и скорости ветра. Ночью, в пасмурную погоду, а также при ветре 12 м/с и более поправка равна нулю.
P - Атмосферное давление - приведенное к уровню моря атмосферное давление.
Po - Атмосферное давление - измеренное на уровне метеостанции атмосферное давление.
Tmin - Минимальная температура - минимум температуры воздуха на высоте 2 м над землей.
Tmax - Максимальная температура - максимум температуры воздуха на высоте 2 м над землей.
R - Количество осадков - Количество выпавших осадков за период времени, мм. При наведении курсора мыши на число - период времени, за который выпало указанное количество осадков.
R24 - Количество осадков - Количество выпавших осадков за 24 часа, мм.
S - Снежный покров - Высота снежного покрова, см. При наведении курсора мыши на число - состояние снежного покрова и степень покрытия местности в баллах.